• In Moldova, Republic
  • List of Countries
  • For 7 days
  • Water Temperature
  • Satellite Maps
  • Weather Map
  • Weather Widgets
  • user-avatar
    Login

    Hourly Weather Vasilevka

    Today, 19 April, Thursday

    Time Temperature Precipitation Wind Pressure Humidity
    00:00 +8°C° 0 mm 6 mps 748 mmHg 75%
    01:00 +8°C° 0 mm 6 mps 748 mmHg 76%
    02:00 +7°C° 0 mm 5 mps 747 mmHg 77%
    03:00 +7°C° 0 mm 6 mps 747 mmHg 78%
    04:00 +6°C° 0 mm 7 mps 746 mmHg 78%
    05:00 +6°C° 0 mm 8 mps 746 mmHg 78%
    06:00 +6°C° 0 mm 8 mps 746 mmHg 77%
    07:00 +7°C° 0 mm 8 mps 746 mmHg 76%
    08:00 +7°C° 0 mm 8 mps 745 mmHg 76%
    09:00 +7°C° 0.1 mm 8 mps 745 mmHg 74%
    10:00 +9°C° 0.1 mm 8 mps 745 mmHg 73%
    11:00 +9°C° 0.1 mm 8 mps 745 mmHg 71%
    12:00 +8°C° 0.1 mm 9 mps 745 mmHg 70%
    13:00 +8°C° 0.1 mm 9 mps 745 mmHg 69%
    14:00 +10°C° 0.1 mm 9 mps 745 mmHg 68%
    15:00 +9°C° 0.2 mm 8 mps 745 mmHg 70%
    16:00 +9°C° 0.2 mm 8 mps 745 mmHg 72%
    17:00 +7°C° 0.2 mm 8 mps 745 mmHg 74%
    18:00 +8°C° 0.1 mm 7 mps 746 mmHg 75%
    19:00 +8°C° 0.1 mm 7 mps 746 mmHg 76%
    20:00 +8°C° 0.1 mm 7 mps 746 mmHg 77%
    21:00 +8°C° 0 mm 7 mps 747 mmHg 77%
    22:00 +7°C° 0 mm 6 mps 747 mmHg 77%
    23:00 +7°C° 0 mm 6 mps 747 mmHg 77%

    Tomorrow, 20 April, Friday

    Time Temperature Precipitation Wind Pressure Humidity
    00:00 +7°C° 0 mm 6 mps 748 mmHg 79%
    01:00 +5°C° 0 mm 6 mps 748 mmHg 81%
    02:00 +5°C° 0 mm 6 mps 748 mmHg 84%
    03:00 +4°C° 0 mm 6 mps 748 mmHg 86%
    04:00 +4°C° 0 mm 6 mps 748 mmHg 88%
    05:00 +4°C° 0 mm 6 mps 749 mmHg 90%
    06:00 +5°C° 0 mm 6 mps 749 mmHg 84%
    07:00 +7°C° 0 mm 6 mps 750 mmHg 78%
    08:00 +8°C° 0 mm 6 mps 750 mmHg 72%
    09:00 +10°C° 0 mm 6 mps 750 mmHg 66%
    10:00 +11°C° 0 mm 6 mps 750 mmHg 60%
    11:00 +14°C° 0 mm 6 mps 751 mmHg 54%
    12:00 +14°C° 0 mm 6 mps 751 mmHg 52%
    13:00 +15°C° 0 mm 6 mps 751 mmHg 51%
    14:00 +15°C° 0 mm 6 mps 751 mmHg 50%
    15:00 +15°C° 0 mm 6 mps 750 mmHg 51%
    16:00 +15°C° 0 mm 5 mps 750 mmHg 52%
    17:00 +14°C° 0 mm 5 mps 750 mmHg 53%
    18:00 +13°C° 0 mm 4 mps 750 mmHg 59%
    19:00 +11°C° 0 mm 3 mps 751 mmHg 65%
    20:00 +9°C° 0 mm 2 mps 751 mmHg 71%
    21:00 +9°C° 0 mm 2 mps 751 mmHg 73%
    22:00 +9°C° 0 mm 1 mps 751 mmHg 75%
    23:00 +9°C° 0 mm 1 mps 751 mmHg 78%

    Day after tomorrow, 21 April, Saturday

    Time Temperature Precipitation Wind Pressure Humidity
    00:00 +8°C° 0 mm 1 mps 750 mmHg 79%
    01:00 +7°C° 0 mm 2 mps 750 mmHg 80%
    02:00 +7°C° 0 mm 2 mps 750 mmHg 82%
    03:00 +7°C° 0 mm 3 mps 749 mmHg 83%
    04:00 +7°C° 0 mm 3 mps 749 mmHg 84%
    05:00 +5°C° 0 mm 3 mps 748 mmHg 85%
    06:00 +7°C° 0 mm 4 mps 747 mmHg 77%
    07:00 +9°C° 0 mm 5 mps 747 mmHg 70%
    08:00 +11°C° 0 mm 6 mps 746 mmHg 63%
    09:00 +14°C° 0 mm 6 mps 745 mmHg 57%
    10:00 +16°C° 0 mm 7 mps 745 mmHg 52%
    11:00 +18°C° 0 mm 8 mps 744 mmHg 46%
    12:00 +20°C° 0 mm 8 mps 743 mmHg 46%
    13:00 +21°C° 0 mm 9 mps 742 mmHg 45%
    14:00 +22°C° 0 mm 9 mps 741 mmHg 45%
    15:00 +21°C° 0.3 mm 8 mps 740 mmHg 49%
    16:00 +20°C° 0.3 mm 8 mps 740 mmHg 54%
    17:00 +18°C° 0.3 mm 7 mps 739 mmHg 58%
    18:00 +16°C° 0.2 mm 7 mps 739 mmHg 61%
    19:00 +15°C° 0.2 mm 6 mps 740 mmHg 63%
    20:00 +13°C° 0.2 mm 5 mps 740 mmHg 66%
    21:00 +12°C° 0 mm 5 mps 741 mmHg 64%
    22:00 +10°C° 0 mm 5 mps 741 mmHg 63%
    23:00 +9°C° 0 mm 5 mps 741 mmHg 61%

    22 April, Sunday

    Time Temperature Precipitation Wind Pressure Humidity
    00:00 +8°C° 0 mm 5 mps 742 mmHg 62%
    01:00 +7°C° 0 mm 5 mps 742 mmHg 62%
    02:00 +6°C° 0 mm 5 mps 742 mmHg 62%
    03:00 +6°C° 0 mm 5 mps 743 mmHg 65%
    04:00 +5°C° 0 mm 5 mps 743 mmHg 67%
    05:00 +5°C° 0 mm 5 mps 743 mmHg 70%
    06:00 +6°C° 0 mm 5 mps 743 mmHg 66%
    07:00 +7°C° 0 mm 6 mps 744 mmHg 62%
    08:00 +8°C° 0 mm 7 mps 744 mmHg 58%
    09:00 +10°C° 0 mm 7 mps 744 mmHg 53%
    10:00 +11°C° 0 mm 7 mps 744 mmHg 49%
    11:00 +12°C° 0 mm 8 mps 744 mmHg 45%
    12:00 +12°C° 0 mm 8 mps 744 mmHg 43%
    13:00 +13°C° 0 mm 8 mps 744 mmHg 42%
    14:00 +13°C° 0 mm 8 mps 744 mmHg 40%
    15:00 +14°C° 0 mm 7 mps 744 mmHg 42%
    16:00 +13°C° 0 mm 6 mps 744 mmHg 44%
    17:00 +13°C° 0 mm 6 mps 744 mmHg 46%
    18:00 +12°C° 0 mm 5 mps 744 mmHg 51%
    19:00 +10°C° 0 mm 4 mps 744 mmHg 56%
    20:00 +9°C° 0 mm 2 mps 744 mmHg 61%
    21:00 +9°C° 0.1 mm 3 mps 744 mmHg 65%
    22:00 +8°C° 0.1 mm 3 mps 744 mmHg 69%
    23:00 +8°C° 0.1 mm 3 mps 744 mmHg 73%

    23 April, Monday

    Time Temperature Precipitation Wind Pressure Humidity
    00:00 +8°C° 0.1 mm 3 mps 744 mmHg 75%
    01:00 +8°C° 0.1 mm 3 mps 744 mmHg 77%
    02:00 +7°C° 0.1 mm 3 mps 745 mmHg 79%
    03:00 +7°C° 0.1 mm 3 mps 745 mmHg 81%
    04:00 +7°C° 0.1 mm 3 mps 745 mmHg 83%
    05:00 +6°C° 0.1 mm 2 mps 745 mmHg 85%
    06:00 +7°C° 0 mm 2 mps 745 mmHg 78%
    07:00 +8°C° 0 mm 2 mps 745 mmHg 71%
    08:00 +10°C° 0 mm 2 mps 745 mmHg 64%
    09:00 +12°C° 0 mm 2 mps 745 mmHg 57%
    10:00 +13°C° 0 mm 2 mps 745 mmHg 50%
    11:00 +14°C° 0 mm 2 mps 746 mmHg 43%
    12:00 +14°C° 0 mm 2 mps 745 mmHg 42%
    13:00 +15°C° 0 mm 2 mps 745 mmHg 41%
    14:00 +15°C° 0 mm 2 mps 745 mmHg 39%
    15:00 +15°C° 0 mm 2 mps 745 mmHg 40%
    16:00 +15°C° 0 mm 1 mps 745 mmHg 42%
    17:00 +15°C° 0 mm 1 mps 745 mmHg 43%
    18:00 +13°C° 0 mm 1 mps 745 mmHg 48%
    19:00 +10°C° 0 mm 2 mps 745 mmHg 54%
    20:00 +9°C° 0 mm 2 mps 745 mmHg 59%
    21:00 +8°C° 0 mm 2 mps 745 mmHg 62%
    22:00 +8°C° 0 mm 3 mps 745 mmHg 65%
    23:00 +7°C° 0 mm 3 mps 744 mmHg 67%

    24 April, Tuesday

    Time Temperature Precipitation Wind Pressure Humidity
    00:00 +7°C° 0 mm 3 mps 744 mmHg 68%
    01:00 +7°C° 0 mm 3 mps 744 mmHg 69%
    02:00 +6°C° 0 mm 4 mps 743 mmHg 70%
    03:00 +6°C° 0 mm 4 mps 743 mmHg 71%
    04:00 +6°C° 0 mm 4 mps 742 mmHg 71%
    05:00 +6°C° 0 mm 5 mps 742 mmHg 71%
    06:00 +7°C° 0.3 mm 5 mps 741 mmHg 73%
    07:00 +8°C° 0.3 mm 5 mps 741 mmHg 75%
    08:00 +8°C° 0.3 mm 5 mps 740 mmHg 77%
    09:00 +9°C° 1 mm 5 mps 740 mmHg 81%
    10:00 +10°C° 1 mm 4 mps 740 mmHg 84%
    11:00 +10°C° 1 mm 3 mps 740 mmHg 88%
    12:00 +11°C° 0.1 mm 4 mps 740 mmHg 85%
    13:00 +12°C° 0.1 mm 4 mps 739 mmHg 82%
    14:00 +13°C° 0.1 mm 4 mps 739 mmHg 79%
    15:00 +13°C° 0 mm 4 mps 739 mmHg 76%
    16:00 +13°C° 0 mm 4 mps 739 mmHg 73%
    17:00 +13°C° 0 mm 4 mps 739 mmHg 69%
    18:00 +12°C° 0 mm 3 mps 740 mmHg 72%
    19:00 +11°C° 0 mm 3 mps 740 mmHg 75%
    20:00 +9°C° 0 mm 3 mps 740 mmHg 78%
    21:00 +9°C° 0 mm 3 mps 740 mmHg 80%
    22:00 +8°C° 0 mm 3 mps 740 mmHg 83%
    23:00 +7°C° 0 mm 3 mps 741 mmHg 85%
    Show more